Location: Bourg-d�Oueil
(42.8588°N, 0.4991°E)
Time: 00:49:33
(UTC+00:00)

Cosmos 220 Rocket - Pass Details

Date: 16 June 2021
Orbit: 575 x 616 km, 74.0° (Epoch: 25 July)

Event Time Altitude Azimuth Distance (km) Brightness Sun altitude
Rises 20:33:30 0° 203° (SSW) 2,828 7.2 -8.7°
Reaches altitude 10° 20:35:44 10° 205° (SSW) 1,924 6.4 -8.9°
Maximum altitude 20:40:01 73° 290° (WNW) 619 4.2 -9.5°
Drops below altitude 10° 20:44:17 10° 16° (NNE) 1,914 7.0 -10.1°
Sets 20:46:30 0° 19° (NNE) 2,813 7.8 -10.3°
